Hourly Weather Otmet

Today, 28 July, Wednesday

Time Temperature Precipitation Wind Pressure Humidity
00:00 +22°C° 0 mm 1 mps 745 mmHg 69%
01:00 +21°C° 0 mm 1 mps 745 mmHg 71%
02:00 +21°C° 0 mm 1 mps 745 mmHg 72%
03:00 +20°C° 0 mm 2 mps 745 mmHg 73%
04:00 +20°C° 0 mm 2 mps 744 mmHg 74%
05:00 +21°C° 0 mm 2 mps 745 mmHg 71%
06:00 +23°C° 0 mm 1 mps 745 mmHg 68%
07:00 +25°C° 0 mm 1 mps 745 mmHg 66%
08:00 +27°C° 0 mm 1 mps 744 mmHg 59%
09:00 +29°C° 0 mm 2 mps 744 mmHg 53%
10:00 +30°C° 0 mm 2 mps 744 mmHg 46%
11:00 +31°C° 0 mm 2 mps 744 mmHg 43%
12:00 +32°C° 0 mm 2 mps 744 mmHg 40%
13:00 +34°C° 0 mm 2 mps 743 mmHg 37%
14:00 +30°C° 0.8 mm 3 mps 743 mmHg 50%
15:00 +27°C° 0.8 mm 4 mps 743 mmHg 63%
16:00 +25°C° 0.8 mm 4 mps 743 mmHg 76%
17:00 +23°C° 1.2 mm 5 mps 744 mmHg 81%
18:00 +21°C° 1.2 mm 6 mps 744 mmHg 87%
19:00 +20°C° 1.2 mm 7 mps 744 mmHg 92%
20:00 +20°C° 0.5 mm 5 mps 745 mmHg 92%
21:00 +19°C° 0.5 mm 3 mps 745 mmHg 93%
22:00 +20°C° 0.5 mm 1 mps 745 mmHg 93%
23:00 +20°C° 0 mm 1 mps 745 mmHg 93%

Tomorrow, 29 July, Thursday

Time Temperature Precipitation Wind Pressure Humidity
00:00 +19°C° 0 mm 2 mps 745 mmHg 93%
01:00 +19°C° 0 mm 2 mps 745 mmHg 93%
02:00 +18°C° 0 mm 2 mps 745 mmHg 93%
03:00 +17°C° 0 mm 2 mps 745 mmHg 92%
04:00 +17°C° 0 mm 2 mps 745 mmHg 92%
05:00 +18°C° 0 mm 2 mps 745 mmHg 87%
06:00 +19°C° 0 mm 2 mps 746 mmHg 82%
07:00 +20°C° 0 mm 3 mps 746 mmHg 77%
08:00 +22°C° 0 mm 3 mps 746 mmHg 70%
09:00 +23°C° 0 mm 4 mps 746 mmHg 62%
10:00 +26°C° 0 mm 4 mps 746 mmHg 55%
11:00 +26°C° 0 mm 5 mps 746 mmHg 51%
12:00 +27°C° 0 mm 6 mps 745 mmHg 48%
13:00 +27°C° 0 mm 6 mps 745 mmHg 45%
14:00 +27°C° 0 mm 6 mps 745 mmHg 43%
15:00 +28°C° 0 mm 6 mps 745 mmHg 41%
16:00 +28°C° 0 mm 6 mps 745 mmHg 40%
17:00 +26°C° 0 mm 4 mps 745 mmHg 46%
18:00 +25°C° 0 mm 3 mps 745 mmHg 52%
19:00 +23°C° 0 mm 2 mps 745 mmHg 58%
20:00 +21°C° 0 mm 2 mps 745 mmHg 60%
21:00 +20°C° 0 mm 2 mps 745 mmHg 62%
22:00 +19°C° 0 mm 2 mps 745 mmHg 64%
23:00 +19°C° 0 mm 2 mps 745 mmHg 67%

Day after tomorrow, 30 July, Friday

Time Temperature Precipitation Wind Pressure Humidity
00:00 +19°C° 0 mm 1 mps 745 mmHg 69%
01:00 +18°C° 0 mm 1 mps 745 mmHg 71%
02:00 +18°C° 0 mm 1 mps 745 mmHg 72%
03:00 +18°C° 0 mm 1 mps 744 mmHg 73%
04:00 +16°C° 0 mm 1 mps 744 mmHg 74%
05:00 +19°C° 0 mm 1 mps 744 mmHg 69%
06:00 +19°C° 0 mm 2 mps 744 mmHg 65%
07:00 +21°C° 0 mm 2 mps 745 mmHg 60%
08:00 +24°C° 0 mm 3 mps 744 mmHg 55%
09:00 +25°C° 0 mm 3 mps 744 mmHg 50%
10:00 +27°C° 0 mm 4 mps 744 mmHg 45%
11:00 +28°C° 0 mm 4 mps 744 mmHg 43%
12:00 +29°C° 0 mm 4 mps 743 mmHg 41%
13:00 +30°C° 0 mm 4 mps 743 mmHg 40%
14:00 +30°C° 0 mm 5 mps 743 mmHg 39%
15:00 +30°C° 0 mm 5 mps 743 mmHg 38%
16:00 +30°C° 0 mm 5 mps 742 mmHg 37%
17:00 +28°C° 0 mm 4 mps 742 mmHg 44%
18:00 +27°C° 0 mm 2 mps 742 mmHg 52%
19:00 +25°C° 0 mm 1 mps 742 mmHg 59%
20:00 +24°C° 0 mm 1 mps 742 mmHg 60%
21:00 +23°C° 0 mm 2 mps 742 mmHg 60%
22:00 +23°C° 0 mm 2 mps 742 mmHg 61%
23:00 +21°C° 0 mm 2 mps 742 mmHg 63%

31 July, Saturday

Time Temperature Precipitation Wind Pressure Humidity
00:00 +21°C° 0 mm 2 mps 741 mmHg 65%
01:00 +20°C° 0 mm 2 mps 741 mmHg 67%
02:00 +20°C° 0.1 mm 2 mps 741 mmHg 70%
03:00 +20°C° 0.1 mm 2 mps 741 mmHg 73%
04:00 +20°C° 0.1 mm 2 mps 741 mmHg 76%
05:00 +21°C° 0 mm 3 mps 741 mmHg 75%
06:00 +22°C° 0 mm 3 mps 741 mmHg 74%
07:00 +23°C° 0 mm 4 mps 741 mmHg 73%
08:00 +25°C° 0 mm 4 mps 742 mmHg 68%
09:00 +25°C° 0 mm 4 mps 742 mmHg 64%
10:00 +26°C° 0 mm 4 mps 742 mmHg 60%
11:00 +26°C° 0.1 mm 4 mps 742 mmHg 56%
12:00 +27°C° 0.1 mm 4 mps 742 mmHg 53%
13:00 +27°C° 0.1 mm 4 mps 742 mmHg 49%
14:00 +27°C° 0 mm 4 mps 742 mmHg 46%
15:00 +28°C° 0 mm 4 mps 742 mmHg 43%
16:00 +28°C° 0 mm 4 mps 742 mmHg 41%
17:00 +26°C° 0 mm 4 mps 742 mmHg 45%
18:00 +25°C° 0 mm 4 mps 742 mmHg 49%
19:00 +24°C° 0 mm 3 mps 742 mmHg 53%
20:00 +21°C° 0 mm 3 mps 742 mmHg 56%
21:00 +20°C° 0 mm 2 mps 743 mmHg 60%
22:00 +19°C° 0 mm 2 mps 743 mmHg 63%
23:00 +18°C° 0 mm 2 mps 743 mmHg 65%

1 August, Sunday

Time Temperature Precipitation Wind Pressure Humidity
00:00 +18°C° 0 mm 1 mps 743 mmHg 68%
01:00 +18°C° 0 mm 1 mps 743 mmHg 70%
02:00 +18°C° 0 mm 1 mps 743 mmHg 70%
03:00 +16°C° 0 mm 1 mps 743 mmHg 70%
04:00 +16°C° 0 mm 1 mps 743 mmHg 70%
05:00 +18°C° 0 mm 1 mps 743 mmHg 67%
06:00 +19°C° 0 mm 1 mps 743 mmHg 63%
07:00 +21°C° 0 mm 1 mps 743 mmHg 60%
08:00 +22°C° 0 mm 1 mps 743 mmHg 56%
09:00 +23°C° 0 mm 2 mps 743 mmHg 52%
10:00 +24°C° 0 mm 2 mps 742 mmHg 48%
11:00 +23°C° 0.3 mm 2 mps 742 mmHg 57%
12:00 +21°C° 0.3 mm 3 mps 742 mmHg 65%
13:00 +20°C° 0.3 mm 3 mps 742 mmHg 74%
14:00 +19°C° 0.5 mm 3 mps 742 mmHg 78%
15:00 +18°C° 0.5 mm 3 mps 742 mmHg 82%
16:00 +18°C° 0.5 mm 4 mps 741 mmHg 87%
17:00 +17°C° 0.9 mm 3 mps 741 mmHg 89%
18:00 +16°C° 0.9 mm 3 mps 742 mmHg 91%
19:00 +16°C° 0.9 mm 3 mps 742 mmHg 93%
20:00 +16°C° 0.2 mm 3 mps 742 mmHg 93%
21:00 +16°C° 0.2 mm 2 mps 742 mmHg 93%
22:00 +16°C° 0.2 mm 2 mps 742 mmHg 94%
23:00 +16°C° 0.4 mm 2 mps 742 mmHg 93%

2 August, Monday

Time Temperature Precipitation Wind Pressure Humidity
00:00 +16°C° 0.4 mm 2 mps 742 mmHg 93%
01:00 +16°C° 0.4 mm 2 mps 742 mmHg 92%
02:00 +16°C° 0.1 mm 2 mps 742 mmHg 92%
03:00 +16°C° 0.1 mm 2 mps 742 mmHg 92%
04:00 +14°C° 0.1 mm 3 mps 743 mmHg 92%
05:00 +16°C° 0 mm 3 mps 743 mmHg 90%
06:00 +16°C° 0 mm 3 mps 743 mmHg 88%
07:00 +17°C° 0 mm 3 mps 743 mmHg 87%
08:00 +18°C° 0.2 mm 4 mps 743 mmHg 78%
09:00 +20°C° 0.2 mm 5 mps 744 mmHg 70%
10:00 +22°C° 0.2 mm 5 mps 744 mmHg 61%
11:00 +22°C° 0.5 mm 5 mps 744 mmHg 61%
12:00 +22°C° 0.5 mm 5 mps 744 mmHg 61%
13:00 +22°C° 0.5 mm 6 mps 744 mmHg 60%
14:00 +22°C° 0.3 mm 5 mps 744 mmHg 59%
15:00 +22°C° 0.3 mm 5 mps 744 mmHg 58%
16:00 +22°C° 0.3 mm 4 mps 744 mmHg 56%
17:00 +21°C° 0.1 mm 4 mps 744 mmHg 62%
18:00 +20°C° 0.1 mm 3 mps 744 mmHg 67%
19:00 +19°C° 0.1 mm 2 mps 744 mmHg 72%
20:00 +18°C° 0 mm 2 mps 745 mmHg 74%
21:00 +17°C° 0 mm 2 mps 745 mmHg 76%
22:00 +16°C° 0 mm 3 mps 745 mmHg 78%
23:00 +16°C° 0 mm 2 mps 745 mmHg 80%
Show more